• In Österreich
  • Länderverzeichnis
  • Für 7 Tage
  • Wassertemperatur
  • Satellitenkarten
  • Wetterkarte
  • News
  • Widgets
  • user-avatar
    Anmelden

    Stündliche Wetter Acapulco

    Heute, 19 September, Mittwoch

    Zeit Temperatur Niederschläge Wind Luftdruck Luftfeuchtigkeit
    00:00 +28°C° 0 mm 2 m/S 754 mmHg 86%
    01:00 +27°C° 0 mm 2 m/S 754 mmHg 85%
    02:00 +27°C° 0 mm 2 m/S 754 mmHg 85%
    03:00 +27°C° 0 mm 2 m/S 754 mmHg 84%
    04:00 +27°C° 0 mm 1 m/S 754 mmHg 84%
    05:00 +27°C° 0 mm 1 m/S 754 mmHg 83%
    06:00 +29°C° 0 mm 1 m/S 754 mmHg 76%
    07:00 +31°C° 0 mm 1 m/S 754 mmHg 70%
    08:00 +33°C° 0 mm 1 m/S 755 mmHg 64%
    09:00 +34°C° 0 mm 1 m/S 754 mmHg 60%
    10:00 +36°C° 0 mm 2 m/S 754 mmHg 57%
    11:00 +37°C° 0 mm 2 m/S 754 mmHg 53%
    12:00 +37°C° 0.1 mm 2 m/S 753 mmHg 55%
    13:00 +36°C° 0.1 mm 3 m/S 753 mmHg 58%
    14:00 +36°C° 0.1 mm 3 m/S 752 mmHg 60%
    15:00 +35°C° 0.1 mm 3 m/S 752 mmHg 65%
    16:00 +34°C° 0.1 mm 3 m/S 752 mmHg 71%
    17:00 +33°C° 0.1 mm 3 m/S 752 mmHg 77%
    18:00 +31°C° 0.1 mm 2 m/S 753 mmHg 81%
    19:00 +30°C° 0.1 mm 2 m/S 753 mmHg 85%
    20:00 +29°C° 0.1 mm 2 m/S 754 mmHg 89%
    21:00 +29°C° 0.6 mm 2 m/S 754 mmHg 90%
    22:00 +28°C° 0.6 mm 2 m/S 754 mmHg 91%
    23:00 +28°C° 0.6 mm 2 m/S 755 mmHg 91%

    Morgen, 20 September, Donnerstag

    Zeit Temperatur Niederschläge Wind Luftdruck Luftfeuchtigkeit
    00:00 +28°C° 0.6 mm 2 m/S 754 mmHg 91%
    01:00 +28°C° 0.6 mm 2 m/S 754 mmHg 91%
    02:00 +28°C° 0.6 mm 2 m/S 754 mmHg 91%
    03:00 +27°C° 0.1 mm 2 m/S 754 mmHg 91%
    04:00 +27°C° 0.1 mm 2 m/S 754 mmHg 90%
    05:00 +27°C° 0.1 mm 2 m/S 753 mmHg 90%
    06:00 +29°C° 0 mm 2 m/S 754 mmHg 84%
    07:00 +30°C° 0 mm 2 m/S 754 mmHg 78%
    08:00 +32°C° 0 mm 1 m/S 755 mmHg 72%
    09:00 +34°C° 0 mm 2 m/S 755 mmHg 67%
    10:00 +36°C° 0 mm 2 m/S 754 mmHg 62%
    11:00 +37°C° 0 mm 3 m/S 754 mmHg 57%
    12:00 +36°C° 0.2 mm 3 m/S 754 mmHg 62%
    13:00 +36°C° 0.2 mm 4 m/S 753 mmHg 67%
    14:00 +35°C° 0.2 mm 4 m/S 752 mmHg 72%
    15:00 +34°C° 0.4 mm 4 m/S 752 mmHg 76%
    16:00 +33°C° 0.4 mm 3 m/S 752 mmHg 79%
    17:00 +31°C° 0.4 mm 3 m/S 752 mmHg 83%
    18:00 +30°C° 1.1 mm 3 m/S 753 mmHg 87%
    19:00 +29°C° 1.1 mm 3 m/S 753 mmHg 90%
    20:00 +29°C° 1.1 mm 3 m/S 754 mmHg 94%
    21:00 +28°C° 0.7 mm 3 m/S 754 mmHg 94%
    22:00 +28°C° 0.7 mm 3 m/S 754 mmHg 94%
    23:00 +28°C° 0.7 mm 3 m/S 755 mmHg 94%

    übermorgen, 21 September, Freitag

    Zeit Temperatur Niederschläge Wind Luftdruck Luftfeuchtigkeit
    00:00 +28°C° 1.3 mm 3 m/S 754 mmHg 94%
    01:00 +27°C° 1.3 mm 2 m/S 754 mmHg 93%
    02:00 +27°C° 1.3 mm 2 m/S 753 mmHg 93%
    03:00 +27°C° 1.5 mm 2 m/S 753 mmHg 92%
    04:00 +27°C° 1.5 mm 2 m/S 753 mmHg 92%
    05:00 +27°C° 1.5 mm 2 m/S 753 mmHg 91%
    06:00 +28°C° 0.4 mm 2 m/S 754 mmHg 86%
    07:00 +30°C° 0.4 mm 1 m/S 754 mmHg 81%
    08:00 +31°C° 0.4 mm 1 m/S 754 mmHg 77%
    09:00 +32°C° 0.6 mm 1 m/S 754 mmHg 73%
    10:00 +35°C° 0.6 mm 2 m/S 754 mmHg 70%
    11:00 +36°C° 0.6 mm 2 m/S 754 mmHg 67%
    12:00 +35°C° 1.3 mm 2 m/S 753 mmHg 71%
    13:00 +35°C° 1.3 mm 3 m/S 752 mmHg 74%
    14:00 +34°C° 1.3 mm 4 m/S 751 mmHg 78%
    15:00 +33°C° 2.1 mm 3 m/S 751 mmHg 82%
    16:00 +31°C° 2.1 mm 3 m/S 751 mmHg 85%
    17:00 +30°C° 2.1 mm 3 m/S 751 mmHg 89%
    18:00 +30°C° 1.5 mm 3 m/S 752 mmHg 91%
    19:00 +29°C° 1.5 mm 2 m/S 753 mmHg 92%
    20:00 +29°C° 1.5 mm 2 m/S 754 mmHg 93%
    21:00 +28°C° 1.6 mm 2 m/S 754 mmHg 93%
    22:00 +28°C° 1.6 mm 1 m/S 754 mmHg 93%
    23:00 +28°C° 1.6 mm 1 m/S 754 mmHg 93%

    22 September, Samstag

    Zeit Temperatur Niederschläge Wind Luftdruck Luftfeuchtigkeit
    00:00 +27°C° 0.7 mm 1 m/S 754 mmHg 93%
    01:00 +27°C° 0.7 mm 1 m/S 754 mmHg 93%
    02:00 +27°C° 0.7 mm 1 m/S 754 mmHg 93%
    03:00 +27°C° 0.3 mm 1 m/S 754 mmHg 92%
    04:00 +27°C° 0.3 mm 1 m/S 754 mmHg 92%
    05:00 +27°C° 0.3 mm 1 m/S 754 mmHg 91%
    06:00 +28°C° 0 mm 1 m/S 754 mmHg 86%
    07:00 +29°C° 0 mm 1 m/S 754 mmHg 81%
    08:00 +31°C° 0 mm 1 m/S 755 mmHg 76%
    09:00 +33°C° 0.1 mm 1 m/S 754 mmHg 70%
    10:00 +34°C° 0.1 mm 1 m/S 754 mmHg 63%
    11:00 +36°C° 0.1 mm 1 m/S 754 mmHg 57%
    12:00 +36°C° 0.1 mm 2 m/S 753 mmHg 58%
    13:00 +36°C° 0.1 mm 3 m/S 752 mmHg 59%
    14:00 +36°C° 0.1 mm 3 m/S 751 mmHg 60%
    15:00 +35°C° 0.5 mm 3 m/S 751 mmHg 67%
    16:00 +33°C° 0.5 mm 3 m/S 751 mmHg 73%
    17:00 +31°C° 0.5 mm 2 m/S 751 mmHg 80%
    18:00 +30°C° 0.4 mm 2 m/S 752 mmHg 82%
    19:00 +29°C° 0.4 mm 2 m/S 753 mmHg 85%
    20:00 +28°C° 0.4 mm 2 m/S 753 mmHg 87%
    21:00 +28°C° 0.2 mm 1 m/S 753 mmHg 87%
    22:00 +28°C° 0.2 mm 1 m/S 754 mmHg 88%
    23:00 +28°C° 0.2 mm 1 m/S 754 mmHg 88%

    23 September, Sonntag

    Zeit Temperatur Niederschläge Wind Luftdruck Luftfeuchtigkeit
    00:00 +27°C° 0.1 mm 1 m/S 753 mmHg 87%
    01:00 +27°C° 0.1 mm 2 m/S 753 mmHg 87%
    02:00 +27°C° 0.1 mm 2 m/S 753 mmHg 86%
    03:00 +27°C° 0 mm 2 m/S 753 mmHg 85%
    04:00 +27°C° 0 mm 2 m/S 753 mmHg 84%
    05:00 +26°C° 0 mm 2 m/S 753 mmHg 84%
    06:00 +28°C° 0 mm 1 m/S 754 mmHg 78%
    07:00 +30°C° 0 mm 1 m/S 754 mmHg 72%
    08:00 +32°C° 0 mm 1 m/S 754 mmHg 66%
    09:00 +33°C° 0.1 mm 1 m/S 754 mmHg 63%
    10:00 +35°C° 0.1 mm 2 m/S 754 mmHg 60%
    11:00 +36°C° 0.1 mm 2 m/S 754 mmHg 58%
    12:00 +35°C° 0.8 mm 2 m/S 753 mmHg 63%
    13:00 +35°C° 0.8 mm 3 m/S 752 mmHg 68%
    14:00 +34°C° 0.8 mm 3 m/S 751 mmHg 73%
    15:00 +32°C° 1.2 mm 2 m/S 751 mmHg 79%
    16:00 +31°C° 1.2 mm 2 m/S 751 mmHg 84%
    17:00 +30°C° 1.2 mm 2 m/S 751 mmHg 89%
    18:00 +29°C° 1.2 mm 1 m/S 752 mmHg 90%
    19:00 +28°C° 1.2 mm 1 m/S 753 mmHg 91%
    20:00 +28°C° 1.2 mm 1 m/S 753 mmHg 93%
    21:00 +27°C° 0.6 mm 1 m/S 754 mmHg 93%
    22:00 +27°C° 0.6 mm 1 m/S 754 mmHg 93%
    23:00 +27°C° 0.6 mm 2 m/S 754 mmHg 93%

    24 September, Montag

    Zeit Temperatur Niederschläge Wind Luftdruck Luftfeuchtigkeit
    00:00 +27°C° 0.7 mm 2 m/S 753 mmHg 92%
    01:00 +27°C° 0.7 mm 2 m/S 753 mmHg 91%
    02:00 +27°C° 0.7 mm 2 m/S 753 mmHg 90%
    03:00 +27°C° 0.1 mm 2 m/S 753 mmHg 89%
    04:00 +27°C° 0.1 mm 2 m/S 753 mmHg 88%
    05:00 +27°C° 0.1 mm 2 m/S 753 mmHg 86%
    06:00 +28°C° 0 mm 2 m/S 754 mmHg 80%
    07:00 +30°C° 0 mm 2 m/S 754 mmHg 74%
    08:00 +32°C° 0 mm 2 m/S 755 mmHg 67%
    09:00 +34°C° 0.1 mm 2 m/S 754 mmHg 63%
    10:00 +35°C° 0.1 mm 3 m/S 754 mmHg 60%
    11:00 +36°C° 0.1 mm 3 m/S 754 mmHg 56%
    12:00 +35°C° 0.6 mm 3 m/S 753 mmHg 63%
    13:00 +34°C° 0.6 mm 4 m/S 752 mmHg 70%
    14:00 +34°C° 0.6 mm 4 m/S 752 mmHg 77%
    15:00 +33°C° 0.7 mm 4 m/S 752 mmHg 78%
    16:00 +32°C° 0.7 mm 4 m/S 752 mmHg 79%
    17:00 +31°C° 0.7 mm 3 m/S 752 mmHg 80%
    18:00 +30°C° 0.9 mm 4 m/S 753 mmHg 83%
    19:00 +29°C° 0.9 mm 4 m/S 754 mmHg 86%
    20:00 +28°C° 0.9 mm 4 m/S 754 mmHg 89%
    21:00 +28°C° 0.4 mm 4 m/S 754 mmHg 88%
    22:00 +28°C° 0.4 mm 4 m/S 754 mmHg 88%
    23:00 +27°C° 0.4 mm 4 m/S 755 mmHg 87%
    Mehr zeigen